GEFSSGP_con_probscp_186.txt.gz
Probability
5 12 28 40 29 9 1 0 0 0 0 0 0 0 0 0 0 0 1 2 3 3 3 3 3 3 3 3 3 3 3 1 0 0 0 1 2 3 3 3 3 3 3 3 3 3 3 3 3
6 12 23 27 17 5 0 0 0 0 0 0 0 0 0 0 0 0 1 2 3 3 3 3 3 3 3 3 3 3 3 2 1 0 0 1 2 3 3 3 3 3 3 3 3 3 3 3 3
8 12 16 12 5 1 0 0 0 0 0 0 0 0 1 1 1 1 2 3 4 3 3 3 3 3 3 3 3 3 3 2 1 0 0 0 1 1 2 3 3 3 3 3 3 3 3 3 3
12 13 10 4 1 0 0 0 0 0 0 0 1 1 2 2 2 2 3 5 5 4 3 3 3 3 3 3 3 3 3 3 1 1 0 0 0 0 1 2 3 3 3 3 3 3 3 3 3
12 9 4 1 0 0 0 0 0 0 0 1 3 4 4 3 3 4 5 6 7 6 5 3 3 3 3 3 3 3 3 3 3 2 1 1 0 0 0 1 2 3 3 3 3 3 3 3 3
5 3 1 0 0 0 0 0 0 0 0 2 6 8 6 4 4 5 6 8 8 8 6 4 3 4 3 3 3 3 3 3 3 3 3 2 1 0 0 0 1 3 3 3 3 3 3 3 3
1 0 0 0 0 0 0 0 0 0 0 2 6 10 10 8 7 6 7 8 9 8 6 5 5 5 4 3 3 3 3 4 4 4 4 4 2 1 0 0 1 3 4 3 3 3 3 3 3
0 0 0 0 0 0 0 0 0 0 0 1 6 11 13 12 9 7 7 8 7 6 6 5 6 6 5 4 4 4 4 5 5 5 5 5 4 2 1 1 2 4 5 4 3 3 3 3 3
0 0 0 0 0 0 0 0 0 0 2 4 9 14 16 13 10 9 9 9 7 6 6 6 6 6 5 5 6 6 6 6 6 6 6 6 5 4 3 2 2 3 5 5 4 3 3 3 3
0 0 0 0 0 0 0 1 1 2 6 11 16 19 17 14 12 13 14 13 11 8 6 6 6 6 7 7 7 6 6 6 6 6 6 6 6 4 3 3 2 2 3 4 3 3 3 3 3
0 0 0 0 0 0 1 2 2 4 9 17 23 23 18 15 16 18 19 17 15 11 8 8 8 9 11 11 8 6 7 7 7 7 6 6 6 5 4 4 3 3 3 3 3 3 3 3 3
0 0 0 0 0 1 1 3 4 5 10 18 25 25 20 17 19 23 24 21 17 14 12 12 11 13 16 15 10 7 7 8 9 8 7 7 7 7 6 6 5 4 3 3 3 3 3 3 3
0 0 0 0 0 1 2 4 5 6 10 17 23 25 22 19 20 26 28 24 19 16 17 18 18 18 19 17 11 7 6 7 9 9 8 7 8 8 7 6 5 4 3 3 3 3 3 3 3
0 0 0 0 1 2 3 4 6 7 10 16 23 26 26 23 25 31 32 28 24 22 25 27 26 22 20 16 11 7 5 5 7 8 9 9 9 8 6 5 5 4 3 3 3 3 3 3 3
0 0 0 0 1 2 3 4 5 7 9 15 22 28 32 32 34 38 37 32 30 33 36 34 30 28 24 16 10 7 4 4 6 9 10 10 9 8 6 4 4 3 3 3 3 3 3 3 3
0 0 0 0 1 1 1 2 4 7 10 16 22 29 38 42 40 41 40 37 38 43 46 38 32 32 28 18 11 7 4 4 8 10 11 9 8 6 5 3 3 3 3 3 3 3 3 3 3
0 0 0 0 0 0 0 2 3 6 12 18 24 32 41 43 41 41 42 43 46 51 51 43 37 36 31 22 14 9 6 7 10 12 11 9 6 4 4 3 3 3 3 3 3 3 3 3 3
0 0 0 0 0 1 1 3 3 6 13 23 30 37 43 42 41 44 47 49 52 55 55 49 44 40 35 27 18 12 11 12 13 12 11 9 6 4 3 3 3 3 3 3 3 3 3 3 3
0 0 0 0 0 1 2 3 4 6 14 26 35 41 45 45 45 49 53 54 56 58 56 52 49 46 41 32 23 16 15 15 13 12 11 10 7 5 3 3 3 3 3 3 3 3 3 3 4
0 0 0 0 0 1 1 2 4 6 12 23 33 40 45 48 51 56 59 59 61 61 57 53 51 50 46 39 29 20 16 15 13 12 13 13 11 8 4 3 3 3 3 3 3 3 3 4 4
0 0 0 0 0 0 0 2 5 8 12 18 26 34 41 47 55 60 61 61 62 63 59 55 53 51 48 43 34 24 18 17 16 15 16 17 16 12 8 6 4 4 4 4 3 3 4 4 4
0 0 0 0 0 0 0 3 7 10 11 14 21 30 37 46 55 59 58 59 60 61 60 58 55 50 47 44 37 29 23 20 20 19 19 20 20 18 13 9 7 7 7 6 5 5 5 5 5
0 0 0 0 0 0 0 3 6 9 11 13 18 27 36 45 53 56 56 56 56 57 59 59 56 51 47 44 38 31 24 19 19 20 21 21 23 22 18 13 11 10 10 8 7 7 7 7 6
0 0 0 0 0 0 0 2 5 8 10 14 19 25 35 46 51 53 55 57 56 54 55 55 53 50 47 41 36 31 25 19 18 19 20 21 22 23 20 17 15 13 11 10 9 10 9 8 7
0 0 0 0 0 0 0 2 5 7 11 16 21 24 32 41 47 49 54 59 58 53 51 50 49 48 45 39 34 32 29 24 20 18 18 20 20 20 19 19 20 17 13 10 10 11 11 10 9
0 0 0 0 0 0 1 4 8 9 11 17 21 25 28 34 40 43 49 54 54 50 49 49 50 49 44 38 34 33 31 27 20 17 18 20 19 17 18 20 21 19 15 12 11 12 12 12 12
0 0 0 0 0 0 2 8 13 12 12 18 22 24 25 27 32 36 40 45 46 46 48 51 52 51 45 38 34 32 30 25 18 16 18 20 18 16 17 18 17 17 18 16 15 14 12 12 12
0 0 0 0 0 0 2 9 15 15 15 20 24 25 26 26 27 30 33 36 40 43 48 52 54 51 44 38 33 30 27 24 19 16 17 18 17 17 16 14 14 16 19 20 19 17 14 12 11
0 0 0 0 0 0 2 7 12 14 17 22 26 29 30 28 27 29 31 35 40 44 48 52 53 49 43 39 35 31 28 26 23 20 18 18 19 19 18 16 15 15 17 19 19 18 16 14 13
0 0 0 1 1 1 1 5 9 11 16 23 27 32 33 29 29 32 34 40 43 45 49 52 52 49 44 41 39 35 30 29 27 22 19 19 20 20 21 20 18 15 14 16 17 17 16 17 16

GEFSSGP_con_probscp_192.txt.gz
Probability
6 6 6 5 3 1 0 0 0 1 1 1 0 0 0 0 0 0 0 0 0 0 0 0 0 0 0 0 0 0 0 0 1 2 3 3 3 1 2 4 5 5 5 5 5 4 2 1 0
5 4 5 4 2 0 0 0 1 2 2 1 0 0 0 0 0 0 0 0 0 0 0 0 0 0 0 0 0 0 0 0 0 1 3 3 3 2 2 3 4 5 5 4 3 2 1 0 0
3 4 3 2 0 0 0 1 2 2 2 2 1 0 0 0 0 0 0 0 0 0 0 0 1 1 0 0 0 0 0 0 0 1 2 3 3 3 2 3 3 4 3 2 1 0 0 0 0
4 4 2 0 0 0 0 1 3 3 3 2 1 0 0 0 1 1 0 0 0 0 0 1 2 2 1 1 1 1 1 0 0 1 3 3 3 3 3 3 3 3 2 1 0 0 0 1 1
5 3 1 0 0 0 0 2 5 6 5 3 1 0 1 3 4 4 2 1 1 1 1 3 4 3 2 2 2 2 2 1 1 2 3 3 3 3 3 3 3 3 2 1 0 0 0 1 2
3 2 0 0 0 0 0 3 7 9 7 4 2 1 3 9 12 9 6 4 3 2 2 3 5 4 3 3 3 3 3 2 1 1 3 4 4 3 3 3 3 2 1 0 0 0 0 2 3
1 0 0 0 0 0 0 3 9 12 10 6 3 2 6 13 18 15 10 6 4 3 2 2 3 3 2 2 3 3 3 3 2 1 3 4 5 4 4 3 2 1 0 0 0 0 1 2 3
0 0 0 0 1 1 1 3 7 11 10 7 4 4 8 16 22 22 15 9 6 3 1 0 1 1 1 1 1 2 4 4 3 2 2 4 4 5 5 3 2 1 1 1 1 0 1 2 3
0 0 0 1 2 3 3 2 3 6 9 9 7 7 13 20 26 27 22 13 7 3 1 0 0 1 1 1 0 2 4 5 4 3 2 3 3 4 5 4 3 2 2 2 1 0 1 2 2
0 0 0 1 2 4 4 3 3 6 10 12 12 15 20 23 25 26 24 18 10 5 3 1 1 1 2 2 1 1 3 4 4 3 3 3 3 4 5 5 4 3 2 1 0 0 0 1 1
0 0 0 1 3 5 6 6 6 8 11 15 19 21 23 22 20 20 20 18 14 10 7 4 2 2 2 2 1 2 3 3 3 3 3 3 3 3 4 4 3 3 2 1 0 0 0 0 0
1 1 1 3 5 6 7 8 9 9 12 17 21 23 23 21 17 13 14 16 17 15 12 9 6 4 2 1 1 2 3 3 3 3 3 3 3 3 3 2 2 1 1 0 0 0 0 0 0
2 2 3 4 5 6 6 7 8 11 17 20 20 20 20 19 15 12 12 14 18 19 16 13 11 7 3 1 1 3 3 3 3 3 3 2 2 3 2 1 0 0 0 0 0 0 0 0 0
3 3 3 3 3 4 4 5 9 17 25 25 20 17 17 17 15 15 14 15 18 21 19 16 14 10 6 4 3 3 3 3 2 2 1 1 1 1 1 1 0 0 0 0 0 0 0 0 0
3 3 3 1 1 1 2 5 12 23 31 30 23 19 19 18 18 17 16 15 18 21 20 16 14 11 8 6 4 3 2 1 1 1 0 0 0 0 0 0 0 0 0 0 0 0 0 0 0
1 2 2 1 0 0 2 6 13 24 32 32 28 25 24 23 23 22 19 18 19 22 21 16 13 11 8 6 4 2 1 0 0 0 0 0 0 0 0 0 0 0 0 0 0 0 0 0 0
0 1 1 0 0 1 2 6 12 21 30 33 32 30 30 30 32 32 29 24 23 23 21 16 13 10 7 4 2 1 1 0 1 1 0 0 0 0 0 0 0 0 0 0 0 0 0 0 0
0 0 0 0 1 2 4 8 12 20 28 34 36 35 35 37 40 42 39 33 28 25 21 17 14 9 6 4 4 3 2 1 1 2 1 1 1 1 1 0 0 0 0 0 0 0 0 0 0
0 0 0 0 1 2 6 9 12 20 29 34 35 35 36 39 43 45 44 40 34 29 25 21 17 12 9 7 6 6 4 1 1 1 1 1 2 2 1 0 0 0 0 0 0 0 0 0 0
0 0 0 0 1 3 5 7 9 15 24 28 29 30 34 37 40 44 46 44 40 34 30 27 22 18 15 11 7 5 4 2 1 1 1 1 2 1 0 0 0 0 0 0 0 0 0 0 0
0 0 0 1 2 3 4 5 6 9 13 19 23 27 31 34 37 42 45 45 42 39 36 31 26 22 19 13 7 5 5 4 3 2 1 1 2 2 1 1 1 0 0 0 0 0 0 0 0
0 0 0 1 2 3 3 5 5 5 8 14 21 26 29 32 36 39 41 42 41 42 41 35 29 24 20 15 8 6 6 6 5 4 2 1 1 2 2 2 1 0 0 0 0 0 0 0 0
0 0 0 0 1 2 2 3 3 4 8 14 21 26 29 31 34 35 36 35 35 38 40 38 33 28 25 18 9 6 6 6 4 3 2 1 1 2 3 3 2 1 1 1 0 0 0 0 0
0 0 0 0 0 1 1 1 1 4 9 15 21 26 29 31 32 32 30 30 30 33 36 37 34 30 28 21 12 6 5 4 3 2 2 1 1 2 4 4 3 2 2 1 0 0 0 0 0
0 0 0 0 0 0 0 1 1 4 9 16 21 25 30 32 31 28 26 27 30 32 34 34 31 28 26 22 16 9 5 4 3 2 1 1 1 1 3 4 2 1 1 1 0 0 0 0 0
0 0 0 0 0 0 1 2 3 5 10 15 19 25 30 30 26 23 21 24 29 34 35 34 30 26 23 23 21 15 9 6 4 2 1 0 0 0 2 3 2 1 0 0 0 0 0 0 0
0 0 0 0 0 0 1 3 5 7 11 14 18 24 27 24 21 19 19 22 28 33 36 35 31 26 23 22 22 18 14 9 5 2 1 0 0 1 2 3 3 1 0 0 0 0 0 0 0
0 0 0 0 0 0 1 2 5 8 12 16 18 20 20 19 17 17 19 20 24 30 34 35 32 28 24 21 19 18 16 12 8 4 1 1 1 2 3 3 2 1 0 0 0 0 0 0 0
0 0 0 0 0 0 0 1 4 8 14 18 18 17 16 16 17 18 21 22 24 28 33 34 33 30 26 21 17 16 15 13 9 6 3 3 3 4 4 4 2 1 0 0 0 0 0 0 0
0 0 0 0 0 0 0 1 4 9 14 18 19 17 15 16 18 20 22 25 27 29 33 34 34 32 26 20 16 15 15 12 9 7 6 5 4 5 6 5 2 1 0 0 0 0 0 0 0

GEFSSGP_con_probscp_198.txt.gz
Probability
10 5 1 0 0 0 0 0 0 0 0 0 0 1 1 1 0 0 0 0 0 0 0 0 0 0 0 0 0 0 0 0 0 0 0 0 0 1 2 3 3 2 1 0 0 0 0 0 0
6 3 1 0 0 0 0 0 0 0 0 0 0 1 2 1 0 0 0 0 0 0 0 0 1 1 0 0 0 0 0 0 0 0 0 0 0 1 2 3 3 2 1 0 0 0 0 0 0
2 2 1 0 0 0 0 0 0 0 0 0 0 1 2 1 0 0 0 0 0 0 0 1 2 2 1 1 0 0 0 0 0 0 0 0 0 0 1 2 2 1 1 0 0 0 0 0 0
1 1 1 0 0 0 0 0 0 0 0 0 0 0 0 0 0 0 0 0 0 0 0 1 2 2 2 1 0 0 0 0 0 0 1 1 1 0 0 1 1 0 0 0 0 0 0 0 0
0 0 0 0 0 0 0 0 0 0 0 0 0 0 0 0 0 0 0 0 0 0 0 0 1 1 1 1 0 0 0 0 0 0 1 2 2 1 1 1 0 0 0 0 0 0 0 0 0
0 0 0 0 0 0 0 0 1 1 0 0 0 0 0 0 0 0 0 0 0 0 0 0 0 0 0 0 0 0 0 0 0 0 1 1 2 2 2 1 0 0 0 0 0 0 0 0 0
0 0 0 0 0 0 0 1 2 2 1 0 0 0 0 0 0 1 1 1 0 0 0 0 0 0 0 0 0 0 0 0 0 0 0 0 1 1 1 1 0 0 0 0 0 0 0 0 0
0 0 0 0 0 0 0 1 2 3 1 0 0 1 2 3 2 2 2 1 0 0 0 0 0 0 0 0 1 1 0 0 0 0 0 0 0 0 0 0 0 0 0 0 0 0 0 0 0
0 0 0 0 0 0 0 1 3 4 2 1 0 2 6 8 7 5 2 1 0 0 0 0 0 0 0 1 1 1 0 0 0 0 0 0 0 0 0 0 0 0 0 0 1 0 0 0 0
0 0 0 0 0 0 2 3 4 4 2 1 2 6 10 11 10 7 4 2 1 1 1 1 1 1 1 1 1 1 0 0 0 0 0 0 0 0 0 0 0 0 0 0 0 0 0 0 0
1 1 0 0 1 2 4 5 4 3 1 1 4 9 13 13 11 8 4 2 2 2 1 1 0 1 1 1 1 0 0 0 0 0 0 0 0 0 0 0 0 0 0 0 0 0 0 0 0
2 2 1 1 2 2 3 3 2 1 2 4 7 11 14 14 11 7 4 2 2 2 2 1 1 0 1 1 0 0 0 0 0 0 0 0 0 0 0 0 0 0 0 0 0 0 0 0 0
2 2 1 1 2 1 1 1 1 3 6 9 11 12 13 12 9 6 4 3 3 3 3 2 2 1 0 0 0 0 0 0 0 0 0 0 0 0 0 0 0 0 0 0 0 0 0 0 0
1 1 0 1 1 0 0 1 3 6 11 14 14 13 12 10 7 5 4 4 3 3 3 3 2 1 1 0 0 0 0 0 0 0 0 0 0 0 0 0 0 0 0 0 0 0 0 0 0
0 0 0 0 0 0 0 1 4 10 16 16 14 13 11 9 6 4 4 4 4 2 1 1 2 1 1 0 0 0 0 0 0 0 0 0 0 0 0 0 0 0 0 0 0 0 0 0 0
0 0 0 0 0 0 0 0 4 12 17 15 12 11 10 8 5 3 3 4 5 3 1 1 2 2 1 0 0 1 1 0 0 0 0 0 0 0 0 0 0 0 0 0 0 0 0 0 0
0 0 0 0 0 0 0 0 4 11 14 11 8 8 10 9 6 3 2 3 5 5 2 2 2 2 1 0 1 2 2 1 0 0 0 0 0 0 0 0 0 0 0 0 0 0 0 0 0
0 0 0 0 0 0 0 2 5 9 11 9 6 6 9 10 7 5 3 4 6 6 5 3 2 2 2 1 2 3 3 2 1 1 0 0 0 0 0 0 0 0 0 0 0 0 0 0 0
0 0 0 0 0 0 1 4 7 9 8 7 6 5 8 9 8 7 6 5 7 8 7 4 3 3 3 4 3 3 3 2 2 2 1 0 0 0 0 0 0 0 0 0 0 0 0 0 0
0 0 0 0 1 1 2 4 7 7 6 5 5 5 7 8 8 8 8 8 8 8 6 5 4 3 4 5 4 3 1 1 1 2 2 0 0 0 0 0 0 0 0 0 0 0 0 0 0
0 0 0 1 2 2 2 3 4 4 4 4 4 5 6 7 8 7 7 8 8 7 6 5 5 4 4 5 4 3 1 0 1 1 1 0 0 0 0 0 0 0 0 0 0 0 0 0 0
0 0 0 1 2 2 1 1 1 3 4 4 4 5 5 6 7 5 5 6 8 9 8 7 7 6 6 5 4 3 2 1 0 0 0 0 0 0 0 0 0 0 0 0 0 0 0 0 0
0 0 0 1 2 2 2 1 1 3 4 4 5 5 5 5 5 4 4 6 8 9 10 9 8 8 9 7 5 3 2 1 0 0 0 0 0 0 0 0 0 0 0 0 0 0 0 0 0
0 0 0 1 1 2 1 1 1 2 4 5 5 5 5 4 4 4 7 9 11 12 12 11 11 12 11 9 5 3 1 0 0 0 0 0 0 0 0 0 0 0 0 0 0 0 0 0 0
0 0 0 0 0 0 0 0 1 1 3 5 6 6 5 4 4 6 9 11 13 15 15 14 14 14 12 9 6 3 1 0 1 1 0 0 0 0 0 0 0 0 0 0 0 0 0 0 0
0 0 0 0 0 0 0 1 2 3 4 6 7 7 6 5 4 7 9 11 13 15 17 18 16 14 11 8 6 4 3 2 3 2 1 0 0 0 0 0 0 0 0 0 0 0 0 0 0
0 0 0 0 0 0 1 3 5 5 6 7 7 6 6 5 5 7 8 8 9 12 15 18 16 12 9 7 6 6 6 5 5 4 2 1 0 0 0 0 0 0 0 0 0 0 0 0 0
0 0 0 0 0 0 2 3 5 6 7 7 6 6 6 7 7 8 7 6 7 10 13 16 14 11 8 7 7 8 7 6 5 4 2 1 0 0 0 1 1 1 0 0 0 0 0 0 0
0 0 0 0 0 0 1 1 3 6 8 8 7 6 7 8 9 8 7 6 8 10 12 13 12 10 9 8 9 9 8 6 5 3 1 0 0 0 0 0 0 0 0 0 0 0 0 0 0
0 0 0 0 0 0 0 0 2 6 9 9 9 8 8 8 9 9 6 7 9 11 12 11 11 10 9 8 9 10 9 7 5 3 1 0 0 0 0 0 0 0 0 0 0 0 0 0 0

GEFSSGP_con_probscp_204.txt.gz
Probability
12 10 8 6 3 1 0 0 0 0 0 0 0 0 0 0 0 0 0 0 0 0 0 0 0 0 0 0 0 0 0 0 0 0 0 1 1 1 2 3 2 1 0 0 0 0 0 0 0
9 7 7 5 2 0 0 0 0 0 0 0 0 0 0 0 0 0 0 0 0 0 0 0 0 0 0 0 0 0 0 1 1 0 1 2 2 2 3 3 2 1 0 0 0 0 0 0 0
7 7 5 3 1 0 0 0 0 0 0 0 0 0 0 0 0 0 0 0 0 0 0 1 1 0 0 0 0 0 1 2 2 2 2 3 3 3 3 3 2 1 0 0 0 0 0 0 0
6 6 3 1 0 0 0 0 0 1 0 0 0 0 0 0 0 0 0 0 0 0 0 1 1 0 0 0 0 0 1 2 3 3 3 3 2 2 2 1 1 0 0 0 0 0 0 0 0
3 2 1 0 0 0 0 0 0 0 0 0 0 1 1 0 0 0 0 0 0 0 0 1 1 0 0 0 0 1 1 1 2 3 3 3 3 2 1 0 0 0 0 0 0 0 0 0 0
1 0 0 0 0 0 0 0 0 0 0 0 1 2 2 1 0 0 0 0 0 0 0 0 0 0 0 0 1 2 1 1 1 2 3 3 3 3 2 1 0 0 0 0 0 0 0 0 0
0 0 0 0 0 0 0 0 0 0 0 0 1 2 3 3 2 0 0 0 0 0 0 0 0 1 0 0 1 1 1 0 0 1 1 2 2 2 2 1 0 0 0 0 0 0 0 0 0
0 0 0 0 0 0 0 0 0 0 0 0 1 2 4 6 5 2 0 0 1 1 0 0 0 0 0 0 0 0 0 0 0 0 0 1 1 1 1 1 0 0 0 0 0 0 0 0 0
0 0 0 0 0 0 0 0 0 0 0 0 0 2 5 9 8 5 2 1 3 3 1 0 0 0 0 0 0 0 0 0 0 0 0 0 0 0 0 0 0 0 0 0 0 0 0 0 0
0 0 0 0 0 0 0 0 0 0 0 0 1 3 6 9 9 6 4 3 5 4 2 0 0 0 0 0 0 0 0 0 0 0 0 0 0 0 0 0 0 0 0 0 0 0 0 0 0
0 0 0 0 0 0 0 0 0 0 0 1 3 6 7 7 7 5 4 4 5 4 2 1 0 0 0 0 0 0 0 0 0 0 0 0 0 0 0 0 0 0 0 0 0 0 0 0 0
0 0 0 0 0 0 0 0 0 0 0 1 3 6 7 7 6 5 4 3 3 4 3 2 1 1 0 0 0 0 0 0 0 0 0 0 0 0 0 0 0 0 0 0 0 0 0 0 0
0 0 0 0 0 0 0 0 0 1 0 1 4 7 7 7 6 6 3 2 2 3 3 3 2 2 1 0 0 0 1 0 0 0 0 0 0 0 0 0 0 0 0 0 0 0 0 0 0
0 0 0 0 0 0 0 0 1 2 1 1 5 8 8 7 6 5 4 2 2 3 3 3 3 3 2 1 0 0 0 0 0 0 0 0 0 0 0 0 0 0 0 0 0 0 0 0 0
0 0 0 0 0 0 0 0 1 2 1 1 6 10 10 7 6 6 5 4 3 3 4 4 4 3 3 1 0 0 0 0 0 0 0 0 0 0 0 0 0 0 0 0 0 0 0 0 0
0 0 0 0 0 0 0 1 2 1 0 1 4 8 9 9 8 7 6 5 4 5 7 7 4 3 3 2 1 0 0 0 0 0 0 0 0 0 0 0 0 0 0 0 0 0 0 0 0
0 0 0 0 0 0 0 2 3 2 0 1 3 6 7 8 8 6 5 5 6 7 9 8 6 4 3 3 2 1 1 0 0 0 0 1 1 1 0 0 0 0 0 0 0 0 0 0 0
0 0 0 0 0 0 0 2 5 4 1 0 2 4 5 6 7 6 5 5 8 10 11 10 8 6 6 4 2 1 1 0 0 0 0 1 2 2 1 0 0 0 0 0 0 0 0 0 0
0 0 0 0 0 0 0 2 5 6 3 1 2 2 3 6 8 8 8 8 11 14 15 14 13 12 11 7 4 2 1 0 0 0 0 1 3 3 2 0 0 0 1 1 0 0 0 0 0
0 0 0 0 0 0 0 1 5 7 5 3 3 2 2 4 8 10 10 11 14 17 18 18 19 18 15 10 6 2 1 0 0 0 0 1 3 2 1 0 0 1 2 2 1 0 0 0 0
0 0 0 0 0 0 0 1 4 7 7 6 5 4 2 3 6 9 10 10 12 15 17 19 22 22 18 13 8 4 2 0 0 1 0 0 1 1 0 0 0 1 2 3 2 1 0 0 0
0 0 0 0 0 0 0 0 3 6 8 8 8 6 4 4 4 6 7 7 9 11 14 18 22 24 21 16 12 9 6 3 2 1 1 1 0 0 0 0 0 1 2 3 2 1 1 1 1
0 0 0 0 0 0 0 0 2 5 7 9 9 7 5 3 2 2 3 4 6 8 11 17 23 25 23 18 16 15 12 8 5 4 3 2 1 1 1 1 1 2 3 3 3 3 4 4 3
0 0 0 0 0 0 0 0 2 3 5 8 9 7 5 2 1 1 2 5 6 6 9 16 23 25 24 21 19 18 16 13 10 8 5 3 2 2 2 3 4 5 6 6 5 6 6 6 6
0 0 0 0 0 0 0 0 1 2 4 7 9 8 5 3 1 2 5 8 9 8 10 14 20 23 24 22 20 18 17 15 14 12 8 4 2 3 4 4 5 7 7 7 7 7 7 7 7
0 0 0 0 0 0 0 0 1 4 5 7 9 10 8 5 4 4 8 12 13 12 12 14 16 19 20 19 18 17 17 15 15 16 14 8 4 4 4 4 4 5 5 5 6 7 8 9 10
0 0 0 0 0 0 0 0 1 4 6 7 9 11 10 7 6 7 10 14 15 14 13 13 14 16 18 17 17 17 16 16 15 18 18 13 8 6 6 5 4 5 5 5 8 9 10 13 14
0 0 0 0 0 0 0 0 1 3 5 7 10 12 11 8 8 10 12 15 16 15 12 12 13 17 20 19 18 18 18 17 17 19 20 16 11 11 10 8 6 7 7 8 10 11 12 12 13
0 0 0 0 0 0 0 0 1 3 5 8 11 14 13 11 12 16 18 19 19 16 13 14 16 19 21 21 20 19 18 18 20 20 18 15 13 13 13 10 8 9 10 10 10 9 8 6 7
0 0 0 0 0 0 0 1 3 5 7 9 12 15 16 14 16 21 24 24 22 19 16 16 19 20 20 21 20 18 17 18 21 20 16 12 12 13 13 11 10 11 12 11 9 7 4 2 4

GEFSSGP_con_probscp_210.txt.gz
Probability
20 23 34 44 33 11 1 0 0 0 0 0 0 0 0 0 0 0 0 0 0 0 0 0 1 1 0 0 0 0 0 0 0 0 0 1 3 3 3 3 3 3 3 3 3 3 3 3 3
19 27 40 40 23 6 0 0 0 0 0 0 0 0 0 0 0 0 0 0 0 0 0 1 2 2 0 0 0 0 0 0 0 0 1 2 3 3 3 3 3 3 3 3 3 3 3 3 3
21 33 39 28 11 2 0 0 0 0 0 0 0 0 0 0 0 0 0 0 0 1 1 2 3 2 1 1 1 2 1 0 0 1 1 3 3 3 3 3 3 3 3 3 3 3 3 3 3
28 32 27 13 3 0 0 0 0 0 0 1 1 1 0 0 0 0 0 0 1 2 2 2 2 2 2 2 3 3 2 1 1 1 2 3 3 3 3 3 3 3 3 3 3 3 3 2 1
29 24 13 4 0 0 0 0 0 0 0 2 3 2 1 0 0 0 0 0 1 3 3 3 4 4 4 4 3 3 3 2 1 1 2 3 3 3 3 3 3 3 3 3 3 3 3 1 0
19 11 3 0 0 0 0 0 0 0 0 2 4 5 3 1 1 0 0 1 2 3 4 4 5 5 5 5 4 3 3 3 2 1 2 3 3 3 3 3 3 3 3 3 3 3 2 1 0
8 3 0 0 0 0 0 0 0 0 0 1 4 6 5 3 2 1 2 3 4 3 3 3 3 4 5 5 5 4 3 3 3 3 3 3 3 3 3 3 3 3 3 3 3 2 1 0 0
2 1 0 0 0 0 0 0 1 1 1 1 3 6 7 6 4 2 3 4 4 3 2 3 2 2 3 4 4 3 3 3 3 3 3 3 3 3 3 3 3 3 3 3 3 1 0 0 0
0 0 0 0 0 0 0 1 2 2 2 3 5 9 9 7 4 3 3 4 3 3 3 3 3 3 2 3 3 3 3 2 3 3 3 3 3 3 3 3 3 3 3 3 2 1 1 0 0
0 0 0 0 0 0 0 1 1 2 3 5 8 10 10 8 5 5 5 5 4 3 3 3 4 3 2 3 4 3 2 1 1 3 3 3 3 3 2 2 2 2 2 2 3 3 2 1 0
0 0 0 0 0 0 0 0 0 1 2 6 10 11 10 10 9 8 8 7 6 4 4 4 4 3 3 3 4 4 2 1 1 2 3 3 3 2 1 1 1 1 1 2 2 2 2 1 0
0 0 0 0 0 0 0 0 0 1 3 7 10 10 10 13 14 13 12 10 7 6 6 7 6 5 5 5 5 4 3 2 1 2 3 3 3 2 2 2 2 1 1 1 1 1 1 0 0
0 0 0 0 0 1 1 0 0 1 3 8 11 10 9 13 17 18 16 13 9 8 8 8 9 9 8 8 7 5 4 2 2 3 3 2 2 3 3 3 2 1 0 0 0 0 0 0 0
0 0 0 0 0 1 1 0 0 0 2 6 9 8 7 10 16 20 20 17 14 12 11 11 12 13 13 10 7 5 4 3 4 5 5 4 3 4 4 3 2 1 0 1 1 0 0 0 0
0 0 0 0 0 0 0 0 0 0 2 4 6 7 9 11 16 21 22 20 19 18 17 15 15 17 16 10 6 4 4 4 5 7 8 7 7 7 5 3 2 1 1 1 2 1 0 0 0
0 0 0 0 0 0 0 0 0 0 2 4 6 9 15 19 20 22 23 23 26 27 24 19 17 19 18 13 6 3 3 4 5 8 9 8 8 8 6 3 2 2 1 1 2 1 0 0 0
0 0 0 0 0 0 0 1 1 1 3 5 8 15 23 25 23 22 23 27 33 34 30 23 18 19 19 17 10 5 4 5 6 8 9 8 8 8 7 5 3 3 2 1 1 2 1 1 1
0 0 0 0 0 0 0 1 2 2 3 6 12 20 29 29 25 23 24 29 35 37 34 27 21 20 20 20 16 11 9 9 9 11 10 10 10 10 9 7 5 4 4 4 4 4 3 3 2
0 0 0 0 0 0 0 1 2 2 3 6 13 23 32 33 30 27 26 29 35 38 35 30 26 23 23 23 21 18 17 15 14 14 12 11 11 11 10 8 7 6 7 8 8 6 4 3 3
0 0 0 0 0 0 0 1 1 1 3 6 12 21 30 34 36 34 30 30 36 38 36 33 31 27 26 26 24 22 22 20 19 18 15 11 10 10 9 9 9 8 9 9 8 7 5 4 3
0 0 0 0 0 0 1 2 2 2 3 6 10 16 24 31 38 38 33 32 36 37 37 36 35 30 27 26 24 23 23 23 22 21 19 14 10 9 8 8 9 9 9 8 6 5 5 4 3
0 0 0 0 0 0 2 2 2 3 5 7 10 14 19 26 34 37 34 33 36 37 38 40 40 34 28 25 24 23 23 24 23 21 20 17 13 11 10 9 9 11 11 10 7 5 6 5 4
0 0 0 0 0 0 1 1 1 3 6 7 9 12 16 22 31 36 34 32 33 35 38 43 45 40 32 27 26 24 23 23 22 21 21 20 17 14 13 12 13 15 14 12 10 9 9 9 7
0 0 0 0 0 0 0 0 1 3 6 8 9 12 17 22 30 36 35 32 31 31 35 43 47 45 39 33 30 28 25 23 21 21 22 22 20 17 14 13 14 16 15 14 14 13 13 12 9
0 0 0 0 0 0 0 1 2 3 4 7 10 13 18 24 30 35 36 35 31 30 34 43 49 48 43 37 34 32 28 25 23 22 22 22 20 18 16 14 13 13 12 13 15 15 14 15 14
0 0 0 0 0 0 0 2 4 3 4 8 12 14 16 22 29 33 36 36 33 30 35 44 50 49 44 39 36 32 29 28 26 24 22 21 18 16 16 15 13 10 7 8 11 14 15 18 20
0 0 0 0 0 0 1 4 6 6 7 10 14 16 16 21 28 33 37 37 34 32 36 42 46 47 44 42 37 32 30 30 28 26 24 22 19 16 17 16 14 10 5 4 8 13 16 19 22
0 0 0 0 0 0 1 5 8 10 12 15 18 19 21 23 27 32 38 39 36 35 37 39 43 46 44 42 38 33 31 32 32 30 29 27 24 20 18 17 16 12 8 7 9 12 15 17 19
0 0 0 0 0 0 1 3 6 11 16 19 22 23 24 26 27 31 37 40 38 38 38 38 42 46 45 41 40 37 34 33 33 33 31 29 26 23 19 17 16 14 11 10 11 11 13 15 16
0 0 0 0 0 0 0 1 5 11 16 21 23 23 25 27 28 32 37 40 41 40 38 38 40 45 46 44 43 41 36 33 32 32 31 29 26 23 20 17 16 14 12 11 11 11 11 13 13

GEFSSGP_con_probscp_216.txt.gz
Probability
20 13 6 3 2 1 0 0 0 0 0 0 0 0 0 0 0 0 0 0 0 0 0 0 0 0 1 2 2 1 0 0 0 0 0 0 0 0 1 2 3 2 2 2 2 2 3 3 3
14 10 5 2 1 0 0 0 0 1 1 1 0 0 0 0 0 0 0 0 0 0 0 0 0 0 0 1 1 0 0 0 0 0 0 0 0 0 1 2 3 1 1 2 1 1 2 2 3
10 8 5 1 0 0 0 0 0 1 2 2 1 0 0 0 0 0 0 0 0 0 0 1 1 1 0 0 0 0 0 0 0 0 0 0 0 0 1 2 2 1 1 1 1 0 1 2 2
8 7 4 1 0 0 0 0 0 2 3 3 2 0 0 1 2 2 2 1 0 0 0 1 3 2 1 0 0 0 1 1 0 0 0 0 0 1 1 3 3 1 0 0 0 0 1 2 1
7 5 2 0 0 0 0 0 1 3 4 4 2 0 0 1 3 4 3 1 0 0 0 2 4 4 2 1 0 1 2 1 0 0 0 1 1 2 3 3 3 2 1 0 0 0 1 1 1
8 4 1 0 0 0 0 1 2 4 5 3 1 0 1 2 4 4 3 1 0 0 0 2 4 4 3 1 1 2 2 1 1 0 1 2 3 3 3 3 3 3 2 1 0 0 0 1 2
7 3 0 0 0 0 0 1 2 4 4 2 0 0 1 3 4 4 3 1 1 1 1 1 2 3 2 1 1 2 3 3 2 1 1 3 3 3 3 3 3 3 3 2 0 0 0 1 2
4 2 0 0 0 0 0 0 1 2 3 2 0 0 1 3 4 4 3 3 3 4 3 1 1 1 1 1 1 2 3 3 3 3 3 3 3 3 3 3 3 2 2 1 0 0 0 0 1
2 1 0 0 0 0 0 1 2 3 3 3 1 1 2 3 3 4 4 4 3 4 3 1 0 0 0 0 0 1 1 2 2 2 2 2 3 3 3 3 3 2 1 0 0 1 1 0 0
1 0 0 0 0 0 0 1 3 5 7 6 5 5 4 4 4 4 4 4 3 3 2 0 0 0 0 0 0 0 0 1 1 1 1 1 2 3 3 4 4 2 1 0 0 1 1 0 0
0 0 0 0 0 0 0 1 2 5 7 9 10 9 7 6 7 7 6 4 3 3 2 1 1 1 1 0 0 0 0 0 0 0 0 0 1 2 2 3 2 1 0 0 0 1 1 0 0
0 0 0 0 0 0 1 2 3 3 6 11 14 13 11 10 12 12 9 6 4 4 4 3 3 3 2 1 1 0 0 0 0 0 0 0 1 1 1 1 1 0 0 0 0 0 0 0 0
0 0 0 0 0 1 2 4 5 6 8 12 14 14 14 12 13 14 12 9 6 6 6 7 6 5 3 2 1 0 0 0 0 0 0 0 0 0 0 0 0 0 0 0 0 0 0 0 0
0 0 0 0 0 1 3 4 5 7 10 13 15 16 15 12 11 12 13 12 9 7 8 9 7 5 2 2 1 0 0 0 0 0 0 0 0 0 0 0 0 0 0 0 0 0 0 0 0
0 0 0 0 0 1 3 3 4 6 9 14 18 19 17 13 11 11 12 12 10 8 8 10 8 4 2 0 0 0 0 0 0 0 0 0 0 0 0 0 0 0 0 0 0 0 0 0 0
0 0 0 0 0 1 2 2 5 8 11 15 19 20 18 14 12 12 12 13 13 10 9 9 8 5 2 1 0 0 0 0 1 1 2 2 1 1 0 0 0 0 0 0 0 0 0 0 0
0 0 0 0 0 0 0 2 6 9 12 15 17 18 17 15 14 13 14 16 17 15 11 8 7 6 5 3 1 0 0 0 1 3 3 3 3 2 1 0 0 0 0 0 0 0 0 0 0
0 0 0 0 0 0 0 2 5 8 11 15 17 16 15 14 15 18 20 21 22 20 14 9 7 7 6 5 2 1 1 1 2 3 4 4 4 3 1 1 0 0 0 0 0 0 0 0 0
0 0 0 0 0 0 0 1 4 5 8 15 17 15 13 12 15 21 25 26 26 22 17 13 10 8 7 6 5 4 4 4 3 3 4 4 3 3 3 2 1 0 0 0 0 0 0 0 0
0 1 1 0 0 0 0 1 3 3 6 11 13 11 10 10 15 22 26 28 27 24 21 17 14 12 9 7 6 5 5 5 4 3 3 3 3 3 3 2 1 0 0 0 0 0 0 0 0
1 1 1 0 0 0 0 1 2 3 5 8 10 9 8 10 15 21 25 29 30 28 23 19 17 15 13 10 8 7 6 6 5 3 3 3 3 3 3 2 0 0 0 0 0 0 0 1 1
0 0 0 0 0 0 0 0 1 2 5 9 10 8 8 11 16 20 24 29 31 29 24 19 16 17 15 13 10 8 7 6 6 4 3 3 3 3 3 2 1 0 0 0 0 0 0 0 0
0 0 0 0 0 0 0 0 1 2 5 8 10 8 10 14 18 20 22 25 27 27 23 18 16 16 15 13 11 9 8 7 6 6 4 3 3 3 4 3 2 0 0 0 0 0 0 0 0
0 0 0 0 0 0 0 0 1 4 6 9 10 9 10 16 20 20 21 22 23 24 23 19 17 17 16 13 10 10 9 8 8 8 6 4 3 4 5 5 4 1 0 0 0 0 0 0 0
0 0 0 0 0 0 0 0 2 4 7 10 12 11 12 17 21 21 21 21 22 24 24 22 18 17 17 14 11 11 11 11 12 11 7 4 3 4 5 5 3 2 0 0 0 0 0 0 0
0 0 0 0 0 0 0 1 2 4 7 11 14 15 16 20 22 21 19 19 20 23 24 21 18 16 17 16 13 12 13 14 14 12 9 6 4 4 3 3 1 1 0 0 0 0 0 0 0
0 0 0 0 0 0 1 2 4 5 8 12 17 20 22 24 23 20 17 17 19 22 23 20 18 17 17 18 17 15 14 14 13 12 9 7 6 4 2 1 1 1 1 1 0 0 0 0 0
0 0 0 0 0 0 1 2 4 7 10 14 19 23 26 25 22 20 17 17 20 23 23 22 19 17 16 16 17 16 14 12 11 10 8 7 6 5 3 3 3 3 3 2 1 0 0 0 0
0 0 0 0 0 0 0 1 3 7 12 15 19 25 29 25 21 19 18 18 21 25 26 24 20 16 14 14 14 14 13 11 10 9 8 7 6 6 5 4 4 5 4 2 1 0 0 0 0
0 0 0 0 0 0 0 1 3 8 12 16 19 26 30 25 20 18 18 18 21 27 29 25 20 17 14 12 12 13 12 11 10 10 8 7 6 6 6 6 6 5 4 1 0 0 0 0 0

GEFSSGP_con_probscp_222.txt.gz
Probability
14 9 3 1 0 0 0 0 0 0 0 1 1 1 0 0 0 0 0 0 0 0 0 1 1 1 0 0 0 1 2 1 0 0 0 0 0 0 0 0 1 0 0 0 0 0 0 1 2
8 5 2 1 0 0 0 0 0 0 0 0 0 0 0 0 0 0 0 0 0 0 0 0 0 0 0 0 0 2 2 1 0 0 0 0 0 0 0 0 1 0 0 0 0 0 1 1 1
3 2 1 1 0 0 0 0 0 1 1 1 0 0 0 0 0 0 0 0 0 0 0 0 0 0 0 0 1 2 2 1 0 0 0 0 0 0 0 0 0 0 0 0 0 0 1 1 1
2 2 1 0 0 0 0 0 1 2 2 1 0 0 0 0 0 0 0 0 0 0 0 0 0 0 0 0 0 1 1 0 0 0 0 0 0 0 1 1 1 1 0 0 0 0 0 1 1
2 1 0 0 0 0 0 1 2 3 2 1 0 0 0 0 0 0 0 0 0 0 0 0 0 0 0 0 0 0 1 1 0 0 0 0 0 1 2 2 2 2 1 0 0 0 0 0 1
2 1 0 0 0 0 0 1 2 3 3 1 0 0 0 0 0 0 0 0 0 0 0 0 0 0 1 1 0 1 1 1 0 0 1 1 0 1 2 3 3 3 1 0 0 0 0 0 1
2 1 0 0 0 0 0 0 2 3 2 1 0 0 0 0 0 0 0 0 0 0 0 0 0 0 1 1 1 1 1 1 1 1 2 2 1 1 2 3 3 3 2 1 0 0 0 0 0
1 0 0 0 0 0 0 0 1 2 2 1 0 1 1 1 1 1 1 1 1 1 0 0 0 0 1 1 1 1 1 1 2 3 3 3 2 1 2 3 3 3 2 1 0 0 0 0 0
0 0 0 0 0 0 1 2 2 3 3 2 0 1 1 2 3 2 2 2 2 2 1 0 0 0 0 0 0 1 1 2 2 3 3 3 3 2 2 2 2 1 1 0 0 0 0 0 0
0 0 0 0 0 0 1 3 5 6 5 4 2 3 4 4 4 3 3 3 3 2 1 0 0 0 0 0 0 0 1 1 1 2 3 3 2 1 1 2 2 1 0 0 0 0 0 0 0
0 0 0 0 0 0 1 3 6 6 5 5 7 9 9 6 4 3 3 3 1 1 0 0 0 0 0 0 0 0 0 0 0 1 1 2 1 0 0 1 2 1 0 0 0 0 0 0 0
0 0 0 0 0 0 0 1 3 3 2 6 12 14 12 8 4 3 3 3 2 0 0 0 0 0 0 0 0 0 0 0 0 0 0 0 0 0 0 1 1 1 0 0 0 0 0 0 0
0 0 0 0 1 0 0 0 1 1 2 8 15 15 12 9 5 2 2 3 3 1 0 0 0 0 0 0 0 0 0 0 0 0 0 0 0 0 0 0 0 0 0 0 0 0 0 0 0
0 0 0 0 0 0 0 0 0 1 4 10 14 12 10 8 4 1 1 2 2 1 0 0 0 0 0 0 0 0 0 0 0 0 0 0 0 0 0 0 0 0 0 0 0 0 0 0 0
0 0 0 0 0 0 0 0 1 2 5 9 9 8 8 7 4 1 0 1 1 0 0 0 1 1 0 0 0 0 0 0 0 0 0 0 0 0 0 0 0 0 0 0 0 0 0 0 0
0 0 0 0 0 0 0 0 1 3 5 7 7 7 7 5 3 1 0 0 0 1 1 1 2 2 1 0 0 0 0 0 0 0 0 0 0 0 0 0 0 0 0 0 0 0 0 0 0
0 0 0 0 0 0 0 0 1 3 5 7 8 8 6 3 1 1 0 1 2 2 2 2 2 2 1 0 0 0 0 0 0 0 0 0 0 0 0 0 0 0 0 0 0 0 0 0 0
0 0 0 0 0 0 0 0 1 3 6 7 7 6 3 1 0 0 1 2 4 4 3 2 2 2 1 1 1 0 0 0 0 0 0 0 0 0 0 0 0 0 0 0 0 0 0 0 0
0 0 0 0 0 0 0 0 0 3 5 6 5 4 2 0 0 0 1 3 4 5 4 4 4 4 3 2 2 1 0 0 0 0 0 0 1 1 1 0 0 0 0 0 0 0 0 0 0
0 0 0 0 0 0 0 0 0 2 4 4 4 3 2 0 0 0 0 2 4 5 6 7 7 7 6 4 2 1 0 0 0 0 0 1 2 2 1 0 0 0 0 0 0 0 0 0 0
0 0 0 0 0 0 0 0 0 2 3 3 3 3 2 1 0 0 1 3 4 5 6 7 8 9 8 5 3 2 1 1 1 1 1 1 3 3 1 0 0 0 0 0 0 0 0 0 0
0 0 0 0 0 0 0 0 1 2 3 3 3 3 2 1 0 0 1 4 6 6 6 7 8 9 8 5 4 3 2 2 2 2 2 3 3 3 2 1 0 0 0 0 0 0 0 0 0
0 0 0 0 0 0 0 0 1 2 3 3 3 3 2 1 1 0 2 5 7 7 7 8 9 9 8 5 4 3 3 3 4 3 3 3 3 3 3 1 0 0 0 0 0 0 0 0 0
0 0 0 0 0 0 0 0 0 1 3 3 3 3 3 3 2 1 3 6 8 8 8 8 9 9 7 5 4 4 4 6 6 4 3 3 3 3 3 2 1 0 0 0 0 0 0 0 0
0 0 0 0 0 0 0 0 0 1 3 3 3 4 5 5 4 4 5 8 9 10 9 8 7 6 4 3 3 4 6 8 7 5 3 3 3 3 3 2 1 0 0 0 0 0 0 0 0
0 0 0 0 0 0 0 0 1 2 3 4 5 7 7 7 7 8 7 8 10 11 11 8 5 2 1 0 1 3 6 7 6 4 2 2 3 3 2 2 1 0 0 0 0 0 0 0 0
0 0 0 0 0 0 0 0 1 2 4 7 8 9 9 10 11 11 9 8 10 11 11 9 4 2 0 0 1 3 5 7 6 5 4 4 4 3 3 2 1 0 0 0 0 0 0 0 0
0 0 0 0 0 0 0 0 0 1 4 8 9 8 9 10 11 10 9 8 9 9 9 7 4 1 0 1 2 3 5 7 8 7 7 6 5 4 3 2 1 0 0 0 0 0 0 0 0
0 0 0 0 0 0 0 0 1 2 4 7 7 5 5 5 6 7 7 6 6 7 7 5 3 1 1 3 3 4 5 7 8 9 8 6 5 4 3 2 1 0 0 0 0 0 0 0 0
0 0 0 0 0 0 0 1 2 4 5 6 5 2 1 2 2 5 6 5 5 7 7 4 3 2 3 4 4 4 5 6 8 9 7 5 5 4 3 2 1 0 0 0 0 0 0 0 0

GEFSSGP_con_probscp_228.txt.gz
Probability
29 27 25 23 15 4 0 0 0 0 0 0 0 0 0 0 0 0 0 0 0 0 1 3 3 2 1 1 3 4 4 4 3 3 3 2 2 2 2 2 3 3 3 3 3 3 4 5 6
28 26 24 19 9 2 0 0 0 0 0 0 0 0 0 0 0 0 0 0 0 1 2 3 3 2 1 1 3 4 5 4 3 3 2 1 1 1 1 1 2 2 3 3 3 3 4 5 6
22 22 20 11 3 0 0 0 0 0 0 0 0 0 0 0 0 0 0 0 0 2 3 3 3 1 0 1 2 3 4 4 3 2 1 0 0 0 0 0 1 1 2 3 3 3 3 4 6
16 16 12 5 0 0 0 1 0 0 0 0 0 0 0 0 0 0 0 0 0 1 2 2 2 1 0 0 1 1 2 2 2 1 0 0 0 0 0 0 0 1 2 3 3 3 3 4 6
12 10 5 1 0 0 1 1 1 1 0 0 0 0 1 1 1 0 0 0 0 0 1 1 1 0 0 0 1 1 1 1 1 0 0 0 0 0 0 0 0 1 2 3 3 3 4 6 7
7 5 1 0 0 1 2 2 2 2 1 0 0 1 2 2 2 1 0 0 0 0 0 0 1 1 0 1 1 1 0 0 0 0 0 0 0 0 0 0 0 1 3 3 3 3 5 7 8
2 1 0 0 0 1 2 3 3 2 1 0 0 1 2 3 2 1 1 1 1 0 0 0 0 1 1 1 1 0 0 0 0 0 0 0 0 0 0 0 1 2 3 3 3 3 5 7 7
1 0 0 0 0 1 2 3 3 2 1 0 0 1 2 4 3 2 1 2 1 0 0 0 0 0 0 0 0 0 0 0 0 0 0 0 0 1 1 1 1 2 3 3 3 4 4 4 4
1 0 0 0 0 1 2 3 3 2 1 0 0 1 3 5 5 3 3 2 2 1 0 0 0 0 0 0 0 0 0 0 0 0 0 0 0 1 1 1 1 3 3 3 3 3 3 2 1
1 0 0 0 0 1 2 3 3 2 1 1 2 3 5 6 5 5 3 2 1 1 0 0 0 0 0 0 0 0 0 0 0 0 0 0 1 2 1 1 1 2 2 2 2 2 1 1 0
0 0 0 0 0 0 1 2 2 2 1 2 5 9 9 6 4 4 2 1 0 0 0 0 0 1 1 0 1 1 0 0 0 0 0 1 2 2 1 1 1 1 1 1 1 0 0 0 0
0 0 0 0 0 0 0 1 1 1 0 3 8 12 11 7 3 1 1 0 0 0 0 0 1 2 2 1 1 2 1 1 1 1 1 1 2 2 2 2 1 0 0 0 0 0 0 0 0
0 0 0 0 0 0 0 0 0 0 1 5 10 11 9 7 4 1 1 1 1 1 0 0 1 3 3 1 1 2 3 2 3 2 1 0 1 1 2 3 2 1 0 0 0 0 0 0 0
0 0 0 0 0 0 0 0 0 0 2 7 10 8 6 6 5 3 2 2 2 2 1 1 2 3 3 2 1 2 2 3 3 2 1 0 0 1 3 3 3 2 1 0 0 0 1 2 1
0 0 0 0 0 0 0 0 0 0 1 5 7 5 3 4 4 3 3 3 3 3 2 2 3 3 3 2 1 1 1 1 2 2 1 0 1 2 3 3 3 3 2 1 1 1 1 3 2
0 0 0 0 0 0 0 1 1 1 0 1 2 3 3 4 3 3 3 3 3 4 4 4 4 4 4 2 1 1 0 0 1 2 2 1 1 2 3 3 3 2 2 1 1 1 2 3 2
0 0 0 0 0 0 0 1 1 1 0 0 1 2 3 4 3 1 1 2 3 5 7 9 7 6 5 4 3 2 1 1 0 1 1 1 0 1 1 2 1 1 1 1 1 1 2 2 2
0 0 0 0 0 0 0 0 0 0 0 0 0 1 2 3 2 1 0 1 2 6 10 13 12 9 7 6 5 4 4 3 2 1 1 1 1 1 0 0 0 1 2 1 0 0 1 1 1
0 0 0 0 0 0 0 0 0 0 0 0 0 1 1 2 2 1 0 0 2 6 11 14 14 12 10 8 8 8 7 6 4 3 3 3 3 2 1 0 0 2 2 1 0 0 0 0 1
0 0 0 0 0 0 0 0 0 0 0 0 1 1 2 3 2 1 0 1 3 7 10 12 13 13 13 11 10 10 9 7 5 6 7 7 6 4 2 0 0 1 1 1 1 2 2 1 1
0 0 0 0 0 0 0 0 0 1 2 1 1 1 2 4 4 2 2 4 5 8 10 10 11 13 14 13 10 10 10 8 6 7 8 9 9 7 4 1 0 0 1 1 2 3 4 3 3
0 0 0 0 0 0 0 0 0 2 3 3 2 1 3 6 7 6 6 8 8 9 9 9 10 11 13 12 10 10 11 10 8 8 8 9 9 9 6 2 1 1 1 2 3 4 5 5 6
1 1 1 0 0 0 0 0 0 1 3 3 3 3 5 9 10 9 9 10 10 10 9 9 9 10 11 11 11 11 13 13 12 10 9 9 10 9 8 5 4 4 4 4 4 4 5 6 6
2 2 1 0 0 0 0 0 0 1 3 4 5 6 7 10 11 12 12 14 14 12 10 9 9 10 12 12 12 13 14 16 16 15 13 12 11 10 9 8 6 5 5 5 5 5 4 4 5
2 2 1 0 0 0 0 0 1 2 4 5 6 7 8 9 11 12 15 18 18 15 13 12 11 12 13 12 12 12 13 16 17 15 14 13 12 11 11 10 8 7 6 6 6 6 3 2 2
1 1 0 0 0 0 0 1 2 2 2 3 5 7 9 11 12 13 16 19 19 16 15 15 16 16 14 11 10 10 11 13 14 13 11 11 11 12 12 11 9 7 6 6 7 6 3 1 1
1 0 0 0 0 0 0 1 2 3 3 4 7 9 12 15 16 15 15 17 17 15 14 15 17 18 15 12 10 10 10 12 12 10 8 8 9 11 12 13 11 9 8 7 7 6 6 5 4
1 0 0 0 0 0 0 0 3 6 7 7 10 12 16 19 19 16 15 15 15 14 13 13 15 17 15 13 11 10 10 10 8 7 7 9 11 12 13 14 14 12 10 8 8 7 8 8 7
1 0 0 0 0 0 0 1 4 8 10 10 11 14 18 20 18 15 14 14 14 14 13 12 13 14 14 12 10 10 9 8 7 6 8 12 15 16 17 17 16 14 11 9 7 7 8 8 7
0 0 0 0 0 0 0 1 4 9 10 9 11 15 19 18 16 13 12 14 13 12 13 12 13 13 12 11 10 10 10 9 7 7 10 13 17 19 20 19 17 15 13 9 7 6 7 7 7

GEFSSGP_con_probscp_234.txt.gz
Probability
7 16 32 43 34 14 2 0 0 0 0 0 0 0 0 1 1 0 0 0 0 0 0 0 0 0 0 1 1 1 0 0 0 0 0 0 0 0 1 2 2 2 2 3 3 3 1 0 0
12 25 40 40 24 8 1 0 0 0 0 0 0 0 1 2 2 1 0 0 0 0 0 0 0 0 1 2 1 0 0 0 0 0 0 0 0 0 1 1 1 1 2 3 3 3 2 1 0
24 36 44 31 12 2 0 0 0 0 0 0 0 0 1 2 2 1 0 0 1 1 1 1 2 2 2 2 1 0 0 0 0 0 0 0 0 0 1 0 0 0 2 3 3 3 3 1 0
36 43 36 17 4 0 0 0 0 0 0 0 0 0 1 3 2 1 0 0 1 2 2 3 4 4 4 3 1 0 0 0 0 0 0 0 0 0 0 0 0 0 1 2 3 4 2 1 1
41 38 24 7 1 0 0 0 0 0 1 1 0 1 2 3 2 1 0 0 0 2 4 4 5 5 5 4 2 1 0 0 0 0 0 0 0 0 0 0 0 0 0 1 3 4 3 2 2
35 26 12 2 0 0 0 0 0 0 1 1 1 2 3 3 3 1 0 0 0 1 4 4 4 5 5 4 3 2 1 0 0 0 0 0 0 0 0 0 0 0 0 0 1 3 4 3 3
24 14 4 0 0 0 0 0 0 0 0 0 1 2 3 3 3 2 1 0 0 1 3 4 4 4 3 3 3 3 1 0 0 0 0 0 0 0 0 0 0 0 0 0 1 2 3 4 5
11 6 1 0 0 0 0 0 0 0 0 0 0 2 4 4 3 3 2 1 1 1 2 3 3 2 2 1 2 2 1 0 0 0 0 0 0 0 0 0 0 0 0 0 0 1 2 4 6
3 2 1 0 0 0 0 0 0 0 0 0 1 3 4 4 4 4 3 3 3 3 3 3 2 2 2 1 1 1 1 0 0 0 0 0 0 0 0 0 0 0 0 0 0 0 1 3 4
0 0 0 0 0 0 0 0 0 0 1 2 4 4 3 3 4 3 3 3 3 4 4 3 2 2 2 1 0 0 0 0 0 0 0 0 0 0 0 0 0 0 0 0 0 0 0 1 1
0 0 0 0 0 0 0 0 0 1 2 4 6 5 3 3 3 2 1 2 1 2 3 3 3 3 4 2 1 0 0 1 1 0 0 0 0 0 0 0 0 0 0 0 0 0 0 0 0
0 0 0 0 0 0 0 0 0 1 2 4 6 5 3 3 4 2 0 1 1 1 2 3 3 5 6 4 1 0 0 0 1 1 0 0 0 0 0 0 0 1 1 0 1 1 1 0 1
0 0 0 0 0 0 0 0 0 1 2 4 5 4 2 4 5 2 0 0 1 1 2 3 4 6 7 6 4 2 1 1 1 1 0 0 0 0 0 0 1 1 1 0 1 1 1 1 2
0 0 0 0 0 0 0 0 0 0 1 3 4 3 2 4 5 4 2 2 2 2 3 4 5 6 6 6 7 5 2 2 3 2 1 0 0 1 1 1 1 1 1 1 1 2 3 2 2
0 1 1 1 1 0 0 0 0 0 1 2 3 3 3 4 6 6 5 5 5 6 7 7 7 7 8 7 7 5 3 3 4 4 2 1 1 1 1 1 0 0 1 2 3 5 6 4 2
0 1 2 2 1 0 0 0 0 0 1 3 4 5 5 5 4 5 7 7 9 12 12 9 9 10 12 10 7 6 5 7 7 7 5 4 3 1 1 0 0 0 1 2 3 5 7 5 2
0 0 1 1 1 0 0 0 0 0 1 3 5 6 5 4 3 4 7 9 14 18 16 13 11 13 15 14 11 10 10 12 13 12 10 8 6 4 2 1 1 1 1 2 2 3 5 4 3
0 0 0 0 0 0 0 0 0 0 2 5 8 8 7 5 4 5 7 11 17 21 21 17 14 13 14 14 15 15 15 16 18 18 14 11 9 7 4 3 3 3 2 2 2 3 3 3 4
0 0 0 0 0 0 0 0 0 0 3 8 11 11 9 6 5 6 8 13 19 23 24 22 19 17 14 12 14 18 18 17 18 19 17 14 12 10 7 6 5 4 3 2 2 2 2 3 4
0 0 0 0 1 1 0 1 2 1 2 6 10 10 8 6 6 7 9 14 20 25 26 25 23 20 16 12 12 16 17 16 16 18 18 16 15 13 11 10 8 5 3 2 2 2 2 3 4
0 0 0 1 2 1 1 2 4 2 1 3 6 8 8 7 8 10 12 16 21 26 26 25 25 22 18 14 13 13 15 17 18 19 18 17 16 15 14 12 10 8 5 4 3 4 3 3 3
0 0 0 1 1 1 1 3 5 4 2 4 6 7 8 9 11 15 16 17 22 25 26 26 26 23 17 15 14 14 16 19 20 20 20 18 17 16 14 12 11 10 9 6 5 5 4 3 2
0 0 0 0 0 0 0 2 6 7 6 6 7 8 9 10 14 20 21 20 21 24 26 27 27 24 18 15 15 16 18 19 19 19 20 20 19 19 17 14 12 11 11 9 7 6 5 3 1
0 0 0 0 0 0 0 2 5 7 8 6 5 7 10 12 16 23 26 24 23 24 25 26 27 25 21 18 17 17 18 18 18 20 22 21 21 21 19 15 12 11 11 10 8 6 5 3 2
0 0 0 0 0 0 0 3 6 7 7 6 5 7 11 13 16 23 28 29 28 27 25 27 30 29 24 22 21 19 19 19 20 23 23 20 19 19 18 16 14 12 11 10 9 9 8 7 7
0 0 0 0 0 0 2 5 7 8 8 8 8 9 12 15 19 23 28 33 33 29 26 29 34 33 26 23 23 22 22 22 22 23 21 18 16 16 17 18 17 15 14 14 13 13 13 13 13
0 0 0 0 0 0 3 6 8 9 8 8 10 12 14 18 23 27 32 35 34 30 27 31 36 34 27 23 24 24 24 23 23 21 19 17 16 16 17 19 20 20 19 19 19 18 17 17 17
0 0 0 1 1 0 3 8 10 10 9 10 14 16 17 21 27 32 36 37 33 29 29 33 36 34 28 26 25 24 23 22 21 20 17 16 16 17 17 19 20 22 22 22 21 20 19 19 18
0 0 0 1 2 1 3 9 12 11 11 15 20 21 22 24 28 33 38 38 35 30 30 34 36 34 29 26 26 25 24 21 20 20 18 16 14 15 16 17 19 20 21 21 21 20 19 18 17
0 0 0 1 2 2 4 10 13 11 12 18 23 25 24 25 29 33 38 40 38 35 33 35 36 35 30 26 26 26 25 22 20 20 18 15 13 12 13 15 17 18 20 21 21 20 19 18 15

GEFSSGP_con_probscp_240.txt.gz
Probability
15 9 4 2 1 1 0 0 0 0 1 2 1 0 0 0 0 0 0 0 0 0 0 0 0 0 1 1 1 1 2 2 2 3 3 2 2 1 1 1 0 0 1 1 1 1 1 1 2
10 7 3 1 1 0 0 0 0 1 1 1 1 0 0 0 0 0 0 0 0 0 0 0 0 0 0 0 0 0 1 1 1 2 1 1 1 1 1 0 0 0 0 0 0 0 0 1 2
7 5 3 1 0 0 0 1 2 2 2 1 0 0 0 0 0 0 0 0 0 0 0 0 1 1 0 0 0 0 0 0 0 0 0 0 1 1 0 1 1 1 1 1 1 0 1 2 3
8 7 4 1 0 0 0 2 4 4 2 1 0 0 0 0 0 1 2 1 1 0 0 1 2 2 1 1 0 0 0 1 1 0 0 0 0 0 0 1 2 2 2 2 1 2 3 4 4
11 10 6 1 0 0 0 2 4 4 2 0 0 0 0 0 1 2 3 3 2 1 0 1 4 4 3 3 2 1 1 2 2 1 1 0 0 0 0 1 2 2 2 1 1 3 4 4 4
12 10 5 1 0 0 0 1 2 2 2 0 0 0 0 1 1 3 4 3 2 2 1 1 3 3 3 4 4 2 2 3 3 3 2 1 1 0 0 0 1 1 1 1 1 3 5 5 4
10 7 3 0 0 0 0 0 1 2 2 1 0 0 0 1 2 2 3 3 3 3 1 1 1 1 1 2 3 3 3 3 3 3 3 3 2 1 0 0 0 0 0 0 0 2 4 6 6
6 4 2 0 0 0 0 0 1 3 3 2 1 0 0 1 2 2 2 3 3 4 3 1 0 0 0 1 2 3 3 3 3 3 3 3 2 1 0 0 0 0 0 0 0 0 2 4 4
3 3 2 1 0 0 0 0 1 3 3 3 2 1 1 2 4 4 4 4 4 4 3 2 1 0 0 0 1 2 3 3 3 3 3 3 2 1 1 0 0 0 0 0 0 0 1 2 2
2 3 3 2 1 0 0 0 1 3 3 3 4 4 4 4 5 6 6 6 5 4 3 2 1 0 0 0 0 1 1 2 3 3 3 3 1 0 0 0 0 0 0 0 0 0 1 2 2
2 2 3 2 1 0 0 0 2 3 4 4 5 5 4 4 5 6 7 6 6 5 3 1 0 0 0 0 0 0 0 1 2 3 3 2 1 0 0 0 0 0 0 0 0 0 1 2 2
1 1 2 1 0 0 0 0 2 4 5 5 6 6 5 3 3 4 6 7 8 7 5 2 1 0 0 1 1 0 0 0 1 3 3 2 1 0 0 0 0 0 0 0 0 0 0 1 1
0 0 0 0 0 0 0 1 2 5 6 6 8 8 6 4 2 3 5 7 8 7 6 4 3 2 1 1 1 1 0 0 1 2 2 1 0 0 0 0 0 0 0 0 0 0 0 0 0
0 0 0 0 0 0 0 1 3 4 6 7 8 8 7 6 4 4 6 8 8 7 6 6 5 3 1 1 1 1 0 0 1 1 1 0 0 0 0 0 0 0 0 0 0 0 0 0 0
0 0 0 0 0 0 0 1 2 4 6 7 7 7 8 8 6 5 6 8 8 7 7 6 5 2 1 0 0 0 0 1 1 1 1 0 0 0 0 0 0 0 0 0 0 0 0 0 0
0 0 0 0 0 0 0 0 1 3 5 5 5 6 7 6 4 3 4 5 5 6 6 5 4 2 1 1 0 0 1 2 3 2 1 0 0 0 0 0 0 0 0 0 0 0 0 0 0
0 0 0 0 0 0 0 1 2 4 4 3 2 4 6 4 2 3 4 4 4 4 4 4 4 3 2 2 1 0 1 3 4 3 2 1 0 0 0 0 0 0 0 0 0 0 0 0 0
0 0 0 0 0 1 1 1 3 4 4 3 1 3 5 4 4 6 7 6 5 4 4 3 3 3 3 3 2 1 0 2 3 3 3 1 0 0 0 0 0 0 0 0 0 0 0 0 0
0 0 0 0 0 0 1 2 4 5 4 2 2 4 5 4 6 10 12 9 6 5 4 3 2 2 2 2 2 1 1 2 3 4 3 2 1 0 0 0 0 0 0 0 0 0 0 0 0
0 0 0 0 0 0 1 3 6 6 4 2 5 7 7 4 6 11 13 11 9 6 4 3 2 2 2 3 3 3 4 4 5 4 4 3 3 2 2 1 0 0 0 0 0 0 0 0 0
0 0 0 0 0 0 1 2 6 8 5 4 9 11 8 5 6 9 12 13 12 9 6 4 3 4 4 5 5 6 6 7 6 5 5 6 5 5 3 1 0 0 0 0 0 0 0 0 0
0 0 0 0 0 0 0 2 6 9 7 6 10 12 10 8 8 9 11 12 12 10 8 6 6 6 6 6 6 6 7 8 8 7 6 6 6 6 5 3 1 1 0 0 0 0 0 0 0
0 0 0 0 0 0 0 2 5 8 8 7 9 13 14 13 12 10 10 10 9 9 9 9 9 8 7 5 5 7 9 10 9 7 5 5 6 6 6 5 3 2 1 0 0 0 0 0 0
0 0 0 0 0 0 0 2 4 7 8 9 11 14 15 16 14 11 8 8 9 9 10 10 10 9 7 6 5 6 9 10 10 7 4 4 6 6 6 5 4 3 2 1 0 0 0 0 0
0 0 0 0 0 0 1 2 4 7 10 10 11 13 15 16 16 12 9 10 12 13 12 11 10 9 8 7 6 6 8 10 9 6 3 4 6 7 7 6 4 3 3 2 1 1 1 1 1
0 0 0 0 0 0 2 4 6 8 9 10 11 13 16 17 17 15 13 13 16 16 13 11 9 7 8 8 7 6 6 7 7 5 3 3 5 7 7 7 5 4 3 4 3 3 3 2 2
0 0 0 0 0 0 2 5 6 7 9 10 12 14 16 17 18 18 17 18 20 19 14 11 10 9 9 9 8 7 5 5 4 4 3 2 2 3 4 4 4 3 4 4 5 5 4 3 3
0 0 0 0 0 0 1 2 4 6 9 12 15 16 16 17 20 23 23 23 23 20 15 13 14 14 13 12 10 7 6 5 5 5 4 1 0 1 1 2 3 4 4 5 5 6 5 4 3
0 0 0 0 0 0 0 1 4 7 10 15 19 19 18 19 23 26 27 26 23 19 14 13 15 16 17 16 12 9 8 7 6 5 3 1 0 1 3 4 5 6 6 6 6 6 6 4 4
0 0 0 0 0 0 1 2 5 9 11 15 20 21 19 20 24 26 28 27 22 17 14 13 14 16 17 17 14 11 9 8 6 5 3 1 1 2 4 6 6 6 6 6 6 6 6 5 4

GEFSSGP_con_probscp_246.txt.gz
Probability
4 1 0 0 0 0 0 0 0 0 0 0 0 0 0 0 0 0 0 0 0 0 0 0 0 0 0 0 0 0 1 3 4 3 1 0 0 0 1 0 0 0 0 0 1 1 1 2 1
2 1 1 0 0 0 0 0 0 0 0 0 0 0 0 0 0 0 0 0 0 0 0 0 0 0 0 0 1 1 2 3 5 4 2 1 0 0 1 0 0 0 0 0 0 1 1 2 2
2 2 2 1 0 0 0 0 1 1 0 0 0 0 0 0 0 0 0 0 0 0 0 0 0 1 1 1 2 3 5 5 6 5 4 3 1 0 0 0 0 0 0 0 0 2 3 3 3
2 2 2 1 0 0 0 1 2 2 1 0 0 0 0 0 0 1 1 0 0 0 0 0 0 1 2 2 2 3 5 7 6 5 5 4 2 1 0 0 0 0 0 0 1 3 3 3 3
3 3 2 1 0 0 1 2 3 2 1 0 0 0 0 0 1 2 2 1 0 0 0 0 0 1 1 1 1 1 3 5 5 4 4 4 3 2 1 0 0 0 0 0 0 1 2 2 2
3 3 1 0 0 0 1 2 3 2 1 0 0 0 0 1 2 3 2 1 0 0 0 0 0 0 0 0 0 1 3 3 3 3 3 3 3 3 2 1 0 0 0 0 0 0 0 1 1
3 2 1 0 0 0 0 1 2 2 1 0 0 0 0 1 2 3 2 0 0 0 0 0 0 0 0 0 0 1 2 3 3 3 3 3 3 3 2 1 0 0 0 0 0 0 0 0 0
2 2 1 0 0 0 0 0 1 3 3 1 0 0 0 1 2 3 2 1 0 0 0 0 0 0 0 0 0 0 1 2 3 3 3 3 3 3 2 1 0 0 0 0 0 0 0 0 0
1 1 0 0 0 0 0 0 1 3 4 2 0 0 0 1 3 3 3 1 0 0 0 0 0 0 0 0 0 0 0 1 2 3 3 3 3 3 2 1 0 0 0 0 0 0 0 0 0
1 1 0 0 0 0 0 1 2 3 3 2 0 0 1 2 3 3 3 2 1 0 0 0 0 0 0 0 0 0 0 0 1 3 3 3 3 3 2 0 0 1 0 0 0 0 0 0 0
0 0 0 0 0 0 1 2 2 2 1 1 1 1 2 2 2 2 2 2 2 1 1 0 0 0 0 0 0 0 0 0 1 2 3 3 3 3 2 1 0 0 0 0 0 0 0 0 0
0 0 0 0 0 0 1 1 1 1 0 0 1 2 3 2 2 1 1 1 2 2 2 1 0 0 0 0 0 0 0 0 0 2 3 3 3 3 3 2 0 0 0 0 0 0 0 0 0
0 0 0 0 0 0 0 0 0 0 0 0 1 3 3 2 1 1 0 1 2 3 2 1 0 0 0 0 0 0 0 0 1 2 3 3 3 3 3 1 0 0 0 0 0 0 0 0 0
0 0 0 0 0 0 0 0 0 1 1 1 1 3 2 1 0 0 1 2 2 2 1 0 0 0 0 0 0 0 0 0 1 2 3 3 3 3 2 1 0 0 0 0 0 0 0 0 0
0 0 0 0 0 0 0 0 0 1 2 1 2 3 3 1 1 0 1 2 1 1 0 0 0 0 0 0 0 0 0 0 1 2 2 2 2 1 1 0 0 0 0 0 0 0 0 0 0
0 0 0 0 0 0 0 0 0 1 1 1 2 3 3 3 2 2 2 2 1 0 0 0 0 0 0 0 0 0 0 0 0 1 1 1 1 0 0 0 0 0 0 0 0 0 0 0 0
0 0 0 0 0 0 0 0 0 0 0 0 2 3 3 3 3 3 3 1 0 0 0 0 0 0 0 1 1 0 0 0 0 0 0 0 0 0 0 0 0 0 0 0 0 0 0 0 0
0 0 0 0 0 0 0 0 0 0 0 0 1 2 3 3 4 4 3 1 0 0 0 0 0 0 1 2 2 1 1 1 0 0 0 0 0 0 0 0 0 0 0 0 0 0 0 0 0
0 0 0 0 0 0 0 0 0 0 0 0 0 1 2 4 5 5 3 1 1 1 1 0 0 0 2 3 3 2 3 2 1 0 0 0 0 0 0 0 0 0 0 0 0 0 0 0 0
0 0 0 0 0 0 0 0 0 0 0 0 0 0 1 3 5 5 4 3 3 4 2 0 0 0 1 2 3 4 5 4 2 1 0 0 0 0 0 0 0 0 0 0 0 0 0 0 0
0 0 0 0 0 0 0 0 0 0 0 0 0 0 1 2 4 5 5 5 5 4 2 0 0 0 0 2 4 5 5 4 3 1 0 0 0 0 0 0 0 0 0 0 0 0 0 0 0
0 0 0 0 0 0 0 0 0 0 0 0 1 1 1 2 4 5 6 5 4 3 1 0 1 1 0 1 3 4 4 3 2 1 0 0 0 0 0 0 0 0 0 0 0 0 0 0 0
0 0 0 0 0 0 0 0 0 0 1 1 1 1 2 4 6 4 4 5 4 3 1 1 1 2 1 1 3 3 3 3 1 0 0 0 0 0 0 0 0 0 0 0 0 0 0 0 0
0 0 0 0 0 0 0 0 0 1 2 2 1 1 3 6 7 4 2 3 3 3 2 1 1 2 2 2 3 3 3 2 1 0 0 0 0 0 0 0 0 0 0 0 0 0 0 0 0
0 0 0 0 0 0 0 0 1 2 2 1 0 1 3 5 5 3 1 2 2 2 2 1 0 1 1 1 3 3 3 2 1 0 0 0 0 0 0 0 0 0 0 0 0 0 0 1 1
0 0 0 0 0 0 0 0 1 2 1 0 0 1 2 2 2 1 0 1 1 1 1 0 0 0 1 1 2 4 3 2 1 2 1 0 0 0 0 1 1 1 1 1 1 0 0 1 2
0 0 0 0 0 0 0 0 1 1 1 1 1 1 1 1 0 0 0 0 0 0 0 1 2 3 3 4 4 4 4 3 3 3 2 1 0 0 1 2 2 2 2 2 2 1 1 1 1
0 0 0 0 0 0 0 0 1 2 3 3 2 2 2 1 1 2 1 0 1 1 1 2 5 6 6 6 5 5 4 3 3 3 2 1 0 0 1 2 3 3 3 3 3 3 2 1 0
0 0 0 0 0 0 0 0 1 2 4 5 4 4 4 3 4 4 2 1 1 1 2 4 6 8 7 6 5 5 4 4 3 3 2 1 0 1 1 2 3 3 3 3 3 3 3 2 1
0 0 0 0 0 0 0 0 1 2 5 6 6 5 5 5 5 4 3 1 0 1 2 4 7 9 8 6 5 6 6 4 3 3 2 1 1 2 2 2 3 3 3 3 3 3 3 3 3

GEFSSGP_con_probscp_252.txt.gz
Probability
1 5 10 13 8 2 0 0 0 0 0 0 0 0 0 0 0 0 0 0 0 0 0 0 0 0 0 0 1 2 3 2 2 2 2 3 4 3 3 3 3 3 3 3 4 5 3 1 0
3 6 13 13 6 1 0 0 0 0 0 0 0 0 0 0 0 0 0 0 0 0 0 0 0 0 0 0 1 2 2 1 1 1 1 2 2 2 3 3 3 3 3 2 3 4 3 1 0
7 10 14 10 3 0 0 0 0 0 0 0 0 0 0 0 0 0 0 0 0 0 0 0 0 0 0 0 1 2 3 2 1 0 0 0 0 1 2 3 3 3 2 2 2 3 2 1 0
11 13 12 6 1 0 0 0 1 0 0 0 0 0 0 0 0 0 0 0 0 0 0 0 0 0 0 0 0 1 2 3 2 1 1 0 0 0 1 2 2 2 2 2 2 2 1 1 0
14 13 8 2 0 0 0 0 0 0 0 0 0 0 0 0 0 0 0 0 0 0 1 1 1 1 1 1 1 1 1 3 3 3 2 1 0 0 0 1 1 1 1 2 2 1 0 0 0
11 8 4 1 0 0 0 0 0 0 0 0 0 0 0 0 1 0 0 0 0 0 1 2 2 2 2 2 2 1 1 2 3 3 3 2 1 0 0 0 0 0 0 1 1 0 0 0 0
4 3 1 0 0 0 0 0 0 0 0 0 0 0 0 0 0 0 0 0 0 0 0 1 2 2 2 1 1 1 0 1 3 3 3 3 2 1 0 0 0 0 0 0 0 0 0 0 0
1 1 1 0 0 0 0 0 0 0 0 0 0 0 0 1 1 1 1 1 1 0 0 0 1 1 1 0 0 0 0 1 2 3 2 2 2 1 0 0 0 0 0 0 0 0 0 0 0
0 0 0 0 0 0 0 0 0 0 0 0 0 0 1 2 2 2 1 2 1 0 0 0 0 0 0 0 0 0 0 1 2 2 1 1 2 2 1 0 0 0 0 0 0 0 0 0 0
0 0 0 0 0 0 0 0 0 0 0 0 0 0 1 2 3 2 1 1 1 0 0 0 0 0 0 0 0 0 0 1 2 2 1 1 1 1 1 0 0 0 0 0 0 0 1 0 0
0 0 0 0 0 0 0 0 0 0 0 0 0 0 1 2 2 1 0 0 0 0 0 0 0 0 0 0 0 0 0 0 1 2 3 2 1 1 1 2 1 1 0 0 0 0 0 0 0
0 0 0 0 0 0 0 0 0 0 0 0 0 0 0 1 1 1 0 0 0 0 0 0 0 0 0 0 0 0 0 0 1 2 3 3 3 2 3 3 3 2 1 0 1 0 0 0 0
0 0 0 0 0 0 0 0 0 0 0 1 1 0 0 0 0 0 0 1 1 1 0 0 0 1 1 1 2 1 0 0 0 1 3 3 3 3 3 3 3 2 1 0 0 0 1 1 1
0 0 0 0 0 0 0 0 0 0 1 1 1 0 0 0 0 0 1 2 3 1 0 0 0 0 1 1 2 2 1 0 0 1 2 3 3 3 3 3 3 2 1 0 0 1 2 2 1
0 0 0 0 0 0 0 0 0 0 1 1 1 1 1 1 0 0 1 3 4 2 1 0 0 0 1 1 2 2 1 0 0 0 1 3 3 3 3 3 3 3 1 0 1 2 2 1 0
0 0 0 0 0 0 0 0 0 0 0 1 1 1 2 1 1 1 2 4 5 4 3 2 1 1 2 2 3 2 1 1 0 0 1 2 3 3 3 3 3 3 2 1 2 2 1 0 0
0 0 0 0 0 0 0 0 0 0 0 0 0 1 1 2 2 3 4 6 6 6 5 4 2 2 3 3 3 3 3 2 1 1 1 2 3 3 3 3 3 3 3 2 1 1 0 0 0
0 0 0 0 0 0 0 0 0 0 0 0 0 0 1 2 3 5 7 7 6 6 6 4 3 3 3 3 3 3 3 3 3 3 2 2 2 2 3 3 3 2 2 2 1 0 0 0 0
0 0 0 0 0 0 0 0 0 0 0 1 1 0 1 2 4 6 8 7 6 6 6 4 3 2 3 3 3 3 4 4 4 4 3 2 1 1 1 2 1 1 1 1 0 0 0 0 0
0 0 0 0 0 0 0 0 0 0 0 1 2 1 0 1 4 8 9 8 7 7 6 3 1 1 2 2 2 3 4 5 4 3 3 2 1 0 0 0 0 0 0 0 0 0 0 0 0
0 0 0 0 0 0 0 0 0 0 0 1 2 1 0 1 5 9 10 9 8 7 5 2 0 0 1 1 1 1 2 4 4 2 1 1 0 0 0 0 0 0 1 1 0 0 0 0 0
0 0 0 0 0 0 0 0 0 0 0 1 2 2 1 1 5 9 10 9 7 6 4 1 0 0 0 0 0 0 2 3 3 3 2 1 0 0 0 1 1 2 2 2 1 0 0 0 0
0 0 0 0 0 0 0 0 0 1 1 1 3 3 1 2 5 8 9 7 5 4 3 1 1 1 1 1 1 1 2 3 4 4 3 2 1 1 1 1 3 3 4 4 3 2 1 1 1
0 0 0 0 0 0 0 0 1 2 3 3 3 3 3 5 8 9 8 6 4 3 3 3 3 3 3 3 3 2 3 4 5 5 5 4 3 2 2 2 3 4 4 4 5 4 3 3 3
0 0 0 0 0 0 0 1 3 5 6 4 4 4 6 10 13 14 11 7 4 4 3 3 5 6 6 6 6 5 6 6 6 6 5 4 3 3 3 2 2 3 3 4 4 4 3 4 4
0 0 0 0 0 0 0 1 4 7 7 6 5 6 11 15 17 16 12 8 6 5 4 4 7 10 10 9 9 9 9 7 7 6 5 4 4 4 3 2 1 3 3 3 4 4 3 3 4
0 0 0 0 0 0 0 2 4 5 6 5 6 10 15 18 17 13 8 6 6 6 5 6 10 13 13 11 11 12 11 9 8 7 6 6 6 6 3 1 2 3 4 4 5 5 4 3 3
0 0 0 0 0 0 1 2 4 5 5 4 6 12 15 16 14 10 6 5 5 7 8 10 12 15 16 15 13 13 12 11 10 9 8 9 10 8 5 3 3 4 4 4 6 7 6 5 5
0 0 0 0 0 0 1 3 6 9 9 7 7 10 11 12 12 10 8 7 8 9 11 13 15 17 20 20 17 14 13 13 12 11 11 13 12 9 6 4 4 4 4 5 7 8 7 7 7
0 0 0 0 0 0 1 3 7 12 12 9 7 8 9 9 11 11 10 11 11 11 13 16 17 17 21 22 19 15 14 14 13 13 14 16 13 9 6 5 4 4 4 5 7 7 7 7 8